Flag for U.S.A. Weather past 2 weeks in Post Falls, Idaho, U.S.A.

Now
57 °F

More clouds than sun.


Feels Like: 55 °F
Forecast: 39 / 64 °F
Wind: 8 mph from Southwest

Location: Coeur d'Alene Weather Reporting System

Current Time: Oct 1, 2014 at 2:15:48 PM

Latest Report: Oct 1, 2014 at 1:35 PM


Visibility: 10 mi

Pressure: 30.09 "Hg

Humidity: 51%

Dew point: 39 °F

Location of Post FallsLocation

Historic Weather in Post Falls — Graph

°F

Post Falls temperature yesterday

Maximum temperature yesterday: 61 °F (at 1:35 PM)
Minimum temperature yesterday: 39 °F (at 10:55 PM)
Average temperature yesterday: 52 °F

Past Weeks' High & Low Weather Summary

 TemperatureHumidityPressure
High88 °F (Sep 21, 2:55 PM)100% (Sep 20, 5:15 AM)30.20 "Hg (Sep 20, 5:15 AM)
Low39 °F (Sep 30, 10:55 PM)11% (Sep 24, 10:35 PM)29.65 "Hg (Sep 18, 1:55 AM)
Average62 °F59%29.93 "Hg
* Reported Sep 16 1:15 PM — Oct 1 1:15 PM, Post Falls, Weather by CustomWeather, © 2014

Note: Actual official high and low records may vary slightly from our data, if they occured in-between our weather recording intervals... More about our weather records

Advertising

Post Falls weather history for previous 24 hours

 ConditionsComfort  
Time TempWeatherWind HumidityBarometerVisibility
1:15 PM
Oct 1
57 °FPartly sunny.7 mph51%30.09 "Hg10 mi
12:55 PM57 °FPartly sunny.9 mph51%30.10 "Hg10 mi
12:35 PM57 °FScattered clouds.12 mph59%30.10 "Hg10 mi
12:15 PM55 °FPassing clouds.8 mph59%30.11 "Hg10 mi
11:55 AM55 °FPassing clouds.13 mph59%30.11 "Hg10 mi
11:35 AM54 °FPassing clouds.13 mph67%30.12 "Hg10 mi
10:55 AM52 °FSunny.10 mph67%30.12 "Hg10 mi
10:35 AM50 °FPassing clouds.9 mph71%30.13 "Hg10 mi
10:15 AM50 °FScattered clouds.10 mph71%30.13 "Hg10 mi
9:55 AM48 °FSunny.13 mph76%30.12 "Hg10 mi
9:35 AM48 °FPassing clouds.14 mph76%30.12 "Hg10 mi
9:15 AM46 °FPartly sunny.15 mph82%30.12 "Hg10 mi
8:55 AM46 °FScattered clouds.9 mph76%30.12 "Hg10 mi
8:35 AM45 °FScattered clouds.10 mph81%30.12 "Hg10 mi
8:15 AM45 °FPassing clouds.10 mph81%30.11 "Hg10 mi
7:55 AM45 °FSunny.7 mph81%30.11 "Hg10 mi
7:35 AM43 °FClear.8 mph87%30.11 "Hg10 mi
7:15 AM43 °FPassing clouds.7 mph87%30.10 "Hg10 mi
6:55 AM43 °FPassing clouds.9 mph81%30.09 "Hg10 mi
6:35 AM43 °FPassing clouds.9 mph87%30.09 "Hg10 mi
6:15 AM43 °FPassing clouds.6 mph87%30.09 "Hg10 mi
5:55 AM43 °FPassing clouds.7 mph87%30.08 "Hg10 mi
5:35 AM43 °FPassing clouds.7 mph87%30.07 "Hg10 mi
4:55 AM43 °FClear.8 mph87%30.06 "Hg10 mi
4:35 AM43 °FClear.10 mph87%30.06 "Hg10 mi
4:15 AM43 °FClear.9 mph87%30.05 "Hg10 mi
3:55 AM41 °FClear.7 mph93%30.04 "Hg10 mi
3:35 AM41 °FClear.6 mph87%30.04 "Hg10 mi
3:15 AM43 °FClear.7 mph87%30.04 "Hg10 mi
2:55 AM41 °FClear.8 mph87%30.03 "Hg10 mi
2:35 AM45 °FClear.5 mph87%30.03 "Hg10 mi
2:15 AM45 °FClear.6 mph81%30.03 "Hg10 mi
1:55 AM43 °FClear.8 mph87%30.02 "Hg10 mi
1:35 AM39 °FClear.6 mph93%30.02 "Hg10 mi
1:15 AM39 °FClear.5 mph93%30.02 "Hg10 mi
12:55 AM39 °FClear.No wind87%30.01 "Hg10 mi
12:35 AM39 °FClear.No wind93%30.00 "Hg10 mi
12:15 AM41 °FClear.No wind87%30.00 "Hg10 mi
11:55 PM
Sep 30
43 °FClear.5 mph87%30.00 "Hg10 mi
11:35 PM45 °FClear.8 mph81%29.99 "Hg10 mi
10:55 PM39 °FClear.No wind87%29.99 "Hg10 mi
10:35 PM43 °FClear.No wind81%29.99 "Hg10 mi
10:15 PM45 °FClear.5 mph81%29.98 "Hg10 mi
9:55 PM46 °FClear.8 mph82%29.98 "Hg10 mi
9:35 PM46 °FClear.5 mph87%29.98 "Hg10 mi
9:15 PM43 °FClear.5 mph87%29.98 "Hg10 mi
8:55 PM46 °FClear.3 mph82%29.98 "Hg10 mi
8:35 PM43 °FClear.No wind81%29.96 "Hg10 mi
8:15 PM46 °FClear.5 mph82%29.96 "Hg10 mi
7:55 PM48 °FClear.7 mph87%29.95 "Hg10 mi
7:35 PM48 °FClear.6 mph82%29.95 "Hg10 mi
7:15 PM50 °FSunny.No wind76%29.94 "Hg10 mi
6:55 PM52 °FScattered clouds.5 mph72%29.93 "Hg10 mi
6:35 PM54 °FBroken clouds.8 mph72%29.92 "Hg10 mi
6:15 PM54 °FMore clouds than sun.5 mph67%29.94 "Hg10 mi
5:55 PM55 °FPartly sunny.No wind63%29.92 "Hg10 mi
5:35 PM55 °FScattered clouds.6 mph63%29.91 "Hg10 mi
4:55 PM57 °FPassing clouds.13 mph59%29.91 "Hg10 mi
4:35 PM57 °FPartly sunny.5 mph55%29.90 "Hg10 mi
4:15 PM55 °FMostly cloudy.No wind59%29.90 "Hg10 mi
3:55 PMN/AThundershowers.18 mphN/A29.91 "Hg10 mi
3:35 PM54 °FBroken clouds.13 mph51%29.89 "Hg10 mi
3:15 PMN/AOvercast.22 mphN/A29.89 "Hg10 mi
2:55 PM61 °FMostly cloudy.13 mph52%29.88 "Hg10 mi
2:35 PM59 °FThundershowers. Broken clouds.9 mph55%29.88 "Hg10 mi
Weather by CustomWeather, © 2014

See weather overviewHow to use our weather pages